User: anonymous   Login
Location: Unspecified
(0.0000°N, 0.0000°E)
Time: 07:28:09
(UTC+00:00)
Language:

SURFSAT - Orbit

View from above orbital plane
View from above orbital plane
View from above satellite
View from above satellite

Ground track
Ground track

The orbit data is extracted from the following two-line orbital elements,

1 43614U 18070B   20223.62405438 +.00002755 +00000-0 +70312-4 0  9991
2 43614 093.0239 176.9898 0017586 121.9559 238.3408 15.39413965106813
Epoch (UTC): 10 August 2020 14:58:38
Eccentricity: 0.0017586
inclination: 93.0239°
perigee height: 436 km
apogee height: 460 km
right ascension of ascending node: 176.9898°
argument of perigee: 121.9559°
revolutions per day: 15.39413965
mean anomaly at epoch: 238.3408°
orbit number at epoch: 10681

The dashed part of the orbit path shows where the satellite is in the earth's shadow,  

DLR